Location: Moonridge Observatory
(39.2268°N, 77.7914°W)
Time: 16:01:54
(UTC-04:00)

CZ-2C R/B - Visible Passes

Search period start: 24 July 2014 00:00
Search period end: 03 August 2014 00:00
Orbit: 704 x 911 km, 98.1° (Epoch: 24 July)

Date Brightness Start Highest point End Pass type
(mag) Time Alt. Az. Time Alt. Az. Time Alt. Az.
24 Jul 5.9 02:54:20 10° E 02:56:06 12° ENE 02:57:51 10° NE visible
24 Jul 2.9 04:30:07 10° S 04:35:23 82° WSW 04:40:23 10° NNW visible
25 Jul 3.5 04:05:50 10° SSE 04:10:56 59° ENE 04:15:48 10° N visible
26 Jul 4.5 03:41:57 10° SE 03:46:33 34° ENE 03:50:59 10° N visible
26 Jul 4.0 05:22:13 10° SSW 05:26:28 26° W 05:30:34 10° NW visible
27 Jul 5.3 03:18:33 10° ESE 03:22:15 21° ENE 03:25:51 10° NNE visible
27 Jul 3.3 04:56:58 10° S 05:01:52 43° W 05:06:35 10° NNW visible
28 Jul 5.8 02:56:07 10° E 02:58:02 12° ENE 02:59:56 10° NE visible
28 Jul 2.9 04:32:13 10° S 04:37:21 76° WSW 04:42:16 10° NNW visible
29 Jul 3.4 04:07:52 10° SSE 04:12:54 62° ENE 04:17:43 10° N visible
30 Jul 4.4 03:43:56 10° SE 03:48:30 36° ENE 03:52:55 10° N visible
30 Jul 4.1 05:24:27 10° SSW 05:28:27 23° W 05:32:21 10° NW visible
31 Jul 5.2 03:20:28 10° ESE 03:24:11 22° ENE 03:27:49 10° NNE visible
31 Jul 3.4 04:59:07 10° SSW 05:03:51 40° W 05:08:25 10° NNW visible
01 Aug 5.7 02:57:53 10° E 02:59:58 13° ENE 03:02:00 10° NE visible
01 Aug 2.8 04:34:18 10° S 04:39:19 71° WSW 04:44:08 10° NNW visible
02 Aug 3.2 04:09:54 10° SSE 04:14:50 66° ENE 04:19:37 10° N visible
